Torna al catalogo

CZ-4C DEB

AttivoPO
NORAD 44614·DEBRIS·🇨🇳 China

Lanciato Nov 14, 2017 da Taiyuan Satellite Launch Center

Loading…

Prossimi Passaggi (prossime 24 ore)

TLE

AggiornatoSource: Space-Track

Epoca: Sep 14, 2026, 04:20 UTC

1 44614U 17072E   26257.18094260  .00000296  00000-0  25928-3 0  9994
2 44614  98.7281 340.2436 0228970 150.0627 211.3852 13.80960212443721

Traccia CZ-4C DEB in tempo reale con AllMySat

Download on the App Store